Location: Brantford
(43.1330°N, 80.2670°W)
Time: 22:33:05
(UTC-05:00)

A-11 Canister half - All Passes

Search period start: 21 November 2019 00:00
Search period end: 01 December 2019 00:00
Orbit: 1514 x 1685 km, 47.2° (Epoch: 20 November)

Date Brightness Start Highest point End Pass type
(mag) Time Alt. Az. Time Alt. Az. Time Alt. Az.
21 Nov - 00:52:24 10° WNW 01:01:15 36° SW 01:09:55 10° SSE night (unlit)
21 Nov - 16:09:16 10° SSW 16:18:16 40° SE 16:27:25 10° ENE daylight
21 Nov - 18:12:32 10° WSW 18:22:40 89° SSE 18:32:55 10° ENE visible
21 Nov - 20:18:11 10° W 20:28:22 70° N 20:38:31 10° E visible
21 Nov - 22:23:47 10° WNW 22:34:03 87° SSW 22:44:06 10° ESE visible
22 Nov - 00:29:21 10° WNW 00:38:23 39° SW 00:47:14 10° SSE night (unlit)
22 Nov - 15:46:34 10° SSW 15:55:23 38° SE 16:04:23 10° ENE daylight
22 Nov - 17:49:36 10° WSW 17:59:42 86° SSE 18:09:57 10° ENE visible
22 Nov - 19:55:11 10° W 20:05:21 70° N 20:15:31 10° E visible
22 Nov - 22:00:49 10° WNW 22:11:05 90° SSW 22:21:10 10° ESE visible
23 Nov - 00:06:19 10° WNW 00:15:31 41° SW 00:24:31 10° SSE night (unlit)
23 Nov - 15:23:53 10° SSW 15:32:31 36° SE 15:41:20 10° ENE daylight
23 Nov - 17:26:40 10° WSW 17:36:44 84° SSE 17:46:59 10° ENE visible
23 Nov - 19:32:11 10° W 19:42:20 71° N 19:52:32 10° E visible
23 Nov - 21:37:50 10° WNW 21:48:07 88° NNE 21:58:13 10° ESE visible
23 Nov - 23:43:17 10° WNW 23:52:38 44° SW 00:01:47 10° SSE visible
24 Nov - 01:54:46 10° WSW 01:55:32 10° WSW 01:56:19 10° WSW night (unlit)
24 Nov - 15:01:14 10° SSW 15:09:39 33° SE 15:18:17 10° ENE daylight
24 Nov - 17:03:46 10° WSW 17:13:46 81° SSE 17:24:00 10° ENE visible
24 Nov - 19:09:11 10° W 19:19:20 71° N 19:29:32 10° E visible
24 Nov - 21:14:52 10° WNW 21:25:08 86° NNE 21:35:17 10° ESE visible
24 Nov - 23:20:17 10° WNW 23:29:46 46° SW 23:39:02 10° SSE visible
25 Nov - 01:29:52 10° WSW 01:32:44 12° WSW 01:35:36 10° SW night (unlit)
25 Nov - 14:38:35 10° S 14:46:48 31° SE 14:55:12 10° ENE daylight
25 Nov - 16:40:52 10° SW 16:50:50 79° SSE 17:01:02 10° ENE daylight
25 Nov - 18:46:13 10° W 18:56:20 71° N 19:06:32 10° E visible
25 Nov - 20:51:53 10° WNW 21:02:09 84° NNE 21:12:19 10° ESE visible
25 Nov - 22:57:16 10° WNW 23:06:52 49° SW 23:16:17 10° SSE visible
26 Nov - 01:06:00 10° W 01:09:57 13° WSW 01:13:52 10° SW night (unlit)
26 Nov - 14:15:59 10° S 14:23:58 29° SE 14:32:07 10° ENE daylight
26 Nov - 16:17:58 10° SW 16:27:53 76° SSE 16:38:03 10° ENE daylight
26 Nov - 18:23:13 10° W 18:33:19 72° N 18:43:32 10° ENE visible
26 Nov - 20:28:55 10° WNW 20:39:10 82° NNE 20:49:21 10° ESE visible
26 Nov - 22:34:17 10° WNW 22:43:58 51° SW 22:53:29 10° SSE visible
27 Nov - 00:42:23 10° W 00:47:09 14° WSW 00:51:51 10° SSW night (unlit)
27 Nov - 13:53:25 10° S 14:01:07 27° SE 14:09:01 10° ENE daylight
27 Nov - 15:55:06 10° SW 16:04:57 73° SSE 16:15:04 10° ENE daylight
27 Nov - 18:00:14 10° W 18:10:19 72° N 18:20:33 10° ENE visible
27 Nov - 20:05:57 10° WNW 20:16:11 81° NNE 20:26:23 10° ESE visible
27 Nov - 22:11:18 10° WNW 22:21:04 54° SW 22:30:42 10° SE visible
28 Nov - 00:18:56 10° W 00:24:20 16° WSW 00:29:41 10° SSW night (unlit)
28 Nov - 13:30:52 10° S 13:38:18 25° SE 13:45:53 10° ENE daylight
28 Nov - 15:32:14 10° SW 15:42:01 70° SSE 15:52:06 10° ENE daylight
28 Nov - 17:37:15 10° W 17:47:19 73° N 17:57:33 10° ENE visible
28 Nov - 19:42:58 10° WNW 19:53:12 79° NNE 20:03:24 10° ESE visible
28 Nov - 21:48:19 10° WNW 21:58:10 57° SW 22:07:53 10° SE visible
28 Nov - 23:55:35 10° W 00:01:31 17° WSW 00:07:25 10° SSW night (unlit)
29 Nov - 13:08:21 10° S 13:15:28 23° SE 13:22:44 10° E daylight
29 Nov - 15:09:22 10° SW 15:19:06 67° SSE 15:29:07 10° ENE daylight
29 Nov - 17:14:16 10° W 17:24:19 74° N 17:34:33 10° ENE visible
29 Nov - 19:20:01 10° WNW 19:30:12 78° NNE 19:40:25 10° E visible
29 Nov - 21:25:20 10° WNW 21:35:15 60° SW 21:45:04 10° SE visible
29 Nov - 23:32:17 10° W 23:38:42 19° SW 23:45:04 10° SSW visible
30 Nov - 12:45:53 10° S 12:52:38 22° SE 12:59:33 10° E daylight
30 Nov - 14:46:32 10° SW 14:56:11 65° SE 15:06:09 10° ENE daylight
30 Nov - 16:51:19 10° W 17:01:19 75° NNW 17:11:33 10° ENE daylight
30 Nov - 18:57:02 10° WNW 19:07:12 76° NNE 19:17:26 10° E visible
30 Nov - 21:02:21 10° WNW 21:12:20 62° SW 21:22:13 10° SE visible
30 Nov - 23:09:03 10° W 23:15:53 21° SW 23:22:39 10° S visible
